FW5941 Weather Reports


Display with metric or nautical units.
time (UTC)temp
F
wind
direction
speed
MPH
gust
MPH
rain 1hr
in
rain 24hr
in
rain mn
in
humidity
%
barometer
mb
20260502152254 58 177 4.0 8.0 0.00 0.00 0.00 42 1022.0
20260502151754 57 172 4.0 9.0 0.00 0.00 0.00 43 1022.0
20260502151249 57 179 4.0 10.0 0.00 0.00 0.00 42 1021.9
20260502150750 57 203 4.0 11.0 0.00 0.00 0.00 41 1022.0
20260502150251 56 136 4.0 11.0 0.00 0.00 0.00 40 1021.9
20260502130713 46 175 2.0 5.0 0.00 0.00 0.00 61 1021.5
20260502130217 46 170 1.0 5.0 0.00 0.00 0.00 60 1021.5
20260502123210 48 147 0.0 0.0 0.00 0.00 0.00 60 1021.4
20260502122708 48 147 0.0 2.0 0.00 0.00 0.00 61 1021.3
20260502122205 49 147 0.0 2.0 0.00 0.00 0.00 61 1021.4
20260502121206 49 147 1.0 3.0 0.00 0.00 0.00 61 1021.4
20260502120708 49 138 1.0 5.0 0.00 0.00 0.00 62 1021.4
20260502120205 49 132 1.0 5.0 0.00 0.00 0.00 61 1021.4
20260502115205 49 143 2.0 6.0 0.00 0.00 0.00 61 1021.4
20260502114708 50 174 1.0 5.0 0.00 0.00 0.00 61 1021.4
20260502114207 50 174 2.0 4.0 0.00 0.00 0.00 61 1021.4
20260502113703 50 170 2.0 6.0 0.00 0.00 0.00 60 1021.3
20260502113202 49 180 2.0 6.0 0.00 0.00 0.00 59 1021.3
20260502112703 49 182 2.0 7.0 0.00 0.00 0.00 59 1021.4
20260502112204 49 153 2.0 7.0 0.00 0.00 0.00 59 1021.4
20260502111703 49 196 2.0 6.0 0.00 0.00 0.00 60 1021.3
20260502111203 49 163 2.0 6.0 0.00 0.00 0.00 59 1021.4
20260502110203 49 182 2.0 5.0 0.00 0.00 0.00 55 1021.4
20260502105700 48 198 1.0 5.0 0.00 0.00 0.00 54 1021.4
20260502105200 48 190 1.0 5.0 0.00 0.00 0.00 54 1021.4
20260502104659 48 196 1.0 5.0 0.00 0.00 0.00 54 1021.4
20260502104201 48 167 1.0 5.0 0.00 0.00 0.00 54 1021.5
20260502103700 49 186 0.0 3.0 0.00 0.00 0.00 54 1021.4
20260502103200 49 176 0.0 0.0 0.00 0.00 0.00 54 1021.5
20260502102700 49 176 0.0 1.0 0.00 0.00 0.00 55 1021.5
20260502102154 49 176 0.0 2.0 0.00 0.00 0.00 55 1021.5
20260502101652 49 176 1.0 4.0 0.00 0.00 0.00 55 1021.4
20260502101152 48 176 2.0 6.0 0.00 0.00 0.00 55 1021.4
20260502100652 48 173 2.0 6.0 0.00 0.00 0.00 56 1021.3
20260502100159 48 179 2.0 7.0 0.00 0.00 0.00 56 1021.3
20260502091147 46 249 0.0 0.0 0.00 0.00 0.00 51 1021.3
20260502090151 46 249 0.0 1.0 0.00 0.00 0.00 51 1021.3
20260502070625 46 307 0.0 0.0 0.00 0.00 0.00 55 1021.4
20260502070125 46 307 0.0 0.0 0.00 0.00 0.00 55 1021.5
20260502065623 46 307 0.0 0.0 0.00 0.00 0.00 55 1021.5
20260502065119 46 307 0.0 0.0 0.00 0.00 0.00 55 1021.4
20260502064618 46 307 0.0 0.0 0.00 0.00 0.00 54 1021.5
20260502064118 46 307 0.0 0.0 0.00 0.00 0.00 54 1021.4
20260502063611 47 307 0.0 0.0 0.00 0.00 0.00 54 1021.4
20260502063110 47 307 0.0 0.0 0.00 0.00 0.00 53 1021.5
20260502062609 47 307 0.0 0.0 0.00 0.00 0.00 53 1021.4
20260502062111 47 306 0.0 0.0 0.00 0.00 0.00 53 1021.4
20260502061610 47 307 0.0 0.0 0.00 0.00 0.00 52 1021.4
20260502061113 47 307 0.0 0.0 0.00 0.00 0.00 52 1021.3
20260502060610 47 306 0.0 0.0 0.00 0.00 0.00 52 1021.3
20260502060109 48 306 0.0 0.0 0.00 0.00 0.00 51 1021.3
20260502055609 48 306 0.0 0.0 0.00 0.00 0.00 51 1021.2
20260502055110 48 306 0.0 1.0 0.00 0.00 0.00 50 1021.2
20260502053605 49 306 0.0 0.0 0.00 0.00 0.00 50 1021.2
20260502052606 49 306 0.0 0.0 0.00 0.00 0.00 48 1021.1
20260502052102 49 306 0.0 0.0 0.00 0.00 0.00 46 1021.1
20260502051604 50 306 0.0 0.0 0.00 0.00 0.00 46 1021.1
20260502050104 50 306 0.0 0.0 0.00 0.00 0.00 46 1021.2
20260502045603 51 306 0.0 0.0 0.00 0.00 0.00 45 1021.1
20260502045103 51 306 0.0 0.0 0.00 0.00 0.00 45 1021.1
20260502044604 51 306 0.0 0.0 0.00 0.00 0.00 45 1021.1
20260502044103 51 306 0.0 0.0 0.00 0.00 0.00 45 1021.2
20260502043605 51 306 0.0 0.0 0.00 0.00 0.00 43 1021.2
20260502043105 52 306 0.0 0.0 0.00 0.00 0.00 43 1021.1
20260502042608 52 0.0 0.0 0.00 0.00 0.00 44 1020.9
20260502042113 52 0.0 0.0 0.00 0.00 0.00 43 1021.0
20260501160932 59 123 1.0 4.0 0.00 0.00 0.00 36 1021.5